Weather History for KEIK - February, 2014

Change the Weather History Date:

Saturday, February 22, 2014

  Actual Average (KBJC) Record (KBJC)
Temperature  
Mean Temperature 36 °F -  
Max Temperature 50 °F 43 °F 62 °F (1991)
Min Temperature 22 °F 24 °F 0 °F (1986)
Degree Days  
Heating Degree Days 29    
Moisture  
Dew Point 19 °F    
Average Humidity 55    
Maximum Humidity 97    
Minimum Humidity 23    
Precipitation  
Precipitation 0.00 in - - ()
Sea Level Pressure  
Sea Level Pressure 29.86 in    
Wind  
Wind Speed 9 mph (NW)    
Max Wind Speed 21 mph    
Max Gust Speed 30 mph    
Visibility 9 miles    
Events Snow    
Averages and records for this station are not official NWS values.
T = Trace of Precipitation, MM = Missing Value Source: NWS Daily Summary

Daily Weather History Graph

Daily Weather History Graph

Search for Another Location

Airport or City:

Trip Planner

Search our weather history database for the weather conditions in past years. The results will help you decide how hot, cold, wet, or windy it might be!

Date:

Astronomy

Feb. 22, 2014 Rise Set
Actual Time 6:43 AM MST 5:44 PM MST
Civil Twilight 6:16 AM MST 6:11 PM MST
Nautical Twilight 5:44 AM MST 6:43 PM MST
Astronomical Twilight 5:13 AM MST 7:14 PM MST
Moon 12:41 AM MST (2/22) 10:57 AM MST (2/22)
Length of Visible Light 11h 55m
Length of Day
11h 00m
Waning Gibbous, 49% of the Moon is Illuminated
Feb 22
Waning Gibbous
Mar 1
New
Mar 8
First Quarter
Mar 16
Full
Mar 23
Last Quarter

Hourly Weather History & Observations

Time (MST) Temp. Windchill Dew Point Humidity Pressure Visibility Wind Dir Wind Speed Gust Speed Precip Events Conditions
12:16 AM 39.6 °F 32.1 °F 14.0 °F 35% 29.85 in 10.0 mi West 12.7 mph 20.7 mph N/A   Clear
12:36 AM 38.1 °F 31.2 °F 13.6 °F 37% 29.84 in 10.0 mi West 10.4 mph 17.3 mph N/A   Clear
12:56 AM 37.9 °F 34.4 °F 12.7 °F 36% 29.85 in 10.0 mi NNW 4.6 mph - N/A   Clear
1:16 AM 36.7 °F 28.9 °F 12.6 °F 37% 29.85 in 10.0 mi WNW 11.5 mph - N/A   Clear
1:36 AM 37.0 °F 31.0 °F 12.0 °F 36% 29.86 in 10.0 mi NW 8.1 mph 18.4 mph N/A   Clear
1:56 AM 37.4 °F 28.9 °F 11.8 °F 35% 29.85 in 10.0 mi WNW 13.8 mph 20.7 mph N/A   Clear
2:16 AM 36.0 °F 28.5 °F 12.9 °F 39% 29.85 in 10.0 mi WNW 10.4 mph 17.3 mph N/A   Clear
2:36 AM 37.4 °F 28.5 °F 11.3 °F 34% 29.85 in 10.0 mi WNW 15.0 mph 18.4 mph N/A   Clear
2:56 AM 29.8 °F - 17.4 °F 60% 29.84 in 10.0 mi Calm Calm - N/A   Clear
3:16 AM 28.6 °F - 18.1 °F 65% 29.84 in 10.0 mi Calm Calm - N/A   Clear
3:36 AM 31.8 °F - 15.8 °F 52% 29.84 in 10.0 mi Calm Calm - N/A   Clear
3:56 AM 30.4 °F 25.6 °F 16.0 °F 55% 29.84 in 10.0 mi WNW 4.6 mph - N/A   Clear
4:16 AM 32.0 °F - 15.6 °F 51% 29.84 in 10.0 mi Calm Calm - N/A   Clear
4:36 AM 35.1 °F 31.0 °F 13.5 °F 41% 29.84 in 10.0 mi West 4.6 mph - N/A   Clear
4:56 AM 33.6 °F 29.4 °F 14.2 °F 45% 29.84 in 10.0 mi WNW 4.6 mph - N/A   Clear
5:16 AM 35.2 °F 28.8 °F 14.5 °F 43% 29.84 in 10.0 mi West 8.1 mph - N/A   Clear
5:36 AM 34.9 °F 29.0 °F 14.7 °F 44% 29.84 in 10.0 mi West 6.9 mph - N/A   Clear
5:56 AM 34.0 °F 27.2 °F 14.9 °F 46% 29.84 in 10.0 mi West 8.1 mph - N/A   Clear
6:16 AM 33.8 °F 26.4 °F 15.4 °F 47% 29.84 in 10.0 mi West 9.2 mph - N/A   Clear
6:36 AM 25.9 °F 19.2 °F 18.5 °F 74% 29.84 in 10.0 mi North 5.8 mph - N/A   Clear
6:56 AM 22.5 °F 16.3 °F 19.0 °F 87% 29.84 in 10.0 mi NNE 4.6 mph - N/A   Clear
7:16 AM 22.8 °F 16.7 °F 20.3 °F 90% 29.84 in 10.0 mi North 4.6 mph - N/A   Clear
7:36 AM 24.4 °F - 21.7 °F 89% 29.85 in 10.0 mi Calm Calm - N/A   Clear
7:56 AM 26.2 °F - 22.5 °F 86% 29.85 in 10.0 mi Calm Calm - N/A   Clear
8:16 AM 28.2 °F - 23.0 °F 81% 29.85 in 10.0 mi Calm Calm - N/A   Clear
8:36 AM 30.0 °F 26.5 °F 23.7 °F 77% 29.85 in 10.0 mi NNE 3.5 mph - N/A   Clear
8:56 AM 31.3 °F 27.9 °F 24.3 °F 75% 29.84 in 10.0 mi North 3.5 mph - N/A   Clear
9:16 AM 34.2 °F 31.2 °F 24.6 °F 68% 29.84 in 10.0 mi North 3.5 mph - N/A   Clear
9:36 AM 36.5 °F 31.8 °F 23.5 °F 59% 29.84 in 10.0 mi North 5.8 mph - N/A   Clear
9:56 AM 38.5 °F 35.0 °F 24.3 °F 57% 29.84 in 10.0 mi North 4.6 mph - N/A   Clear
10:16 AM 41.5 °F 37.1 °F 24.1 °F 50% 29.83 in 10.0 mi North 6.9 mph - N/A   Clear
10:36 AM - - - N/A% 29.82 in 10.0 mi North 8.1 mph - N/A   Clear
10:56 AM 46.8 °F - 17.4 °F 31% 29.82 in 10.0 mi West 15.0 mph 20.7 mph N/A   Clear
11:16 AM 48.7 °F - 15.8 °F 27% 29.81 in 10.0 mi NW 16.1 mph 24.2 mph N/A   Clear
11:36 AM 49.3 °F - 14.5 °F 25% 29.81 in 10.0 mi West 16.1 mph 24.2 mph N/A   Clear
11:56 AM 49.6 °F - 14.4 °F 24% 29.80 in 10.0 mi WNW 18.4 mph 27.6 mph N/A   Clear
12:16 PM - - - N/A% 29.80 in 10.0 mi WNW 15.0 mph 25.3 mph N/A   Clear
12:36 PM 50.5 °F - 13.3 °F 23% 29.79 in 10.0 mi West 18.4 mph 28.8 mph N/A   Clear
12:56 PM 50.2 °F - 12.9 °F 23% 29.79 in 10.0 mi West 18.4 mph 26.5 mph N/A   Clear
1:16 PM - - - N/A% 29.79 in 10.0 mi West 11.5 mph 25.3 mph N/A   Scattered Clouds
1:36 PM 50.2 °F - 14.4 °F 24% 29.78 in 10.0 mi West 20.7 mph 29.9 mph N/A   Clear
1:56 PM 50.2 °F - 14.9 °F 25% 29.78 in 10.0 mi West 18.4 mph 24.2 mph N/A   Clear
2:16 PM 49.6 °F - 14.9 °F 25% 29.78 in 10.0 mi West 13.8 mph 24.2 mph N/A   Clear
2:36 PM 48.6 °F - 15.3 °F 26% 29.78 in 10.0 mi West 16.1 mph 25.3 mph N/A   Clear
2:56 PM 47.5 °F - 16.7 °F 29% 29.78 in 10.0 mi WNW 16.1 mph 20.7 mph N/A   Clear
3:16 PM 48.0 °F - 16.2 °F 28% 29.78 in 10.0 mi West 15.0 mph 24.2 mph N/A   Clear
3:36 PM 46.8 °F - 17.4 °F 31% 29.78 in 10.0 mi West 13.8 mph 21.9 mph N/A   Clear
3:56 PM 46.4 °F 40.7 °F 17.8 °F 32% 29.78 in 10.0 mi WNW 12.7 mph - N/A   Clear
4:16 PM 45.9 °F 39.4 °F 17.8 °F 33% 29.79 in 10.0 mi West 15.0 mph 20.7 mph N/A   Scattered Clouds
4:36 PM 44.6 °F 38.8 °F 18.3 °F 35% 29.78 in 10.0 mi WNW 11.5 mph - N/A   Scattered Clouds
4:56 PM 44.6 °F 40.7 °F 19.2 °F 36% 29.79 in 10.0 mi WNW 6.9 mph - N/A   Scattered Clouds
5:16 PM 42.6 °F 36.3 °F 20.3 °F 41% 29.80 in 10.0 mi NW 11.5 mph - N/A   Scattered Clouds
5:36 PM 41.0 °F 33.9 °F 24.3 °F 51% 29.82 in 10.0 mi WNW 12.7 mph 17.3 mph N/A   Mostly Cloudy
5:56 PM 41.4 °F 34.7 °F 23.4 °F 49% 29.82 in 10.0 mi WNW 11.5 mph 17.3 mph N/A   Scattered Clouds
6:16 PM - - - N/A% 29.85 in 10.0 mi NE 15.0 mph 19.6 mph N/A   Scattered Clouds
6:36 PM - - - N/A% 29.89 in 10.0 mi ENE 9.2 mph 19.6 mph N/A   Overcast
6:56 PM - - - N/A% 29.90 in 10.0 mi NNE 4.6 mph 9.2 mph N/A   Overcast
7:16 PM 32.4 °F 23.0 °F 26.6 °F 79% 29.92 in 10.0 mi NNE 12.7 mph 17.3 mph N/A   Overcast
7:36 PM - - - N/A% 29.94 in 10.0 mi NNE 11.5 mph - N/A   Overcast
7:56 PM - - - N/A% 29.96 in 10.0 mi NNE 8.1 mph - N/A   Unknown
8:16 PM - - - N/A% 29.97 in 4.0 mi North 10.4 mph - N/A   Unknown
8:36 PM 29.3 °F 21.5 °F 27.3 °F 92% 29.98 in 7.0 mi North 8.1 mph - N/A Snow Light Snow
8:56 PM 28.4 °F 21.2 °F 27.0 °F 94% 29.99 in 5.0 mi North 6.9 mph - N/A Snow Light Snow
9:16 PM 28.4 °F 21.2 °F 27.1 °F 95% 30.00 in 2.5 mi North 6.9 mph - N/A Snow Light Snow
9:36 PM 28.2 °F 20.2 °F 27.3 °F 96% 30.01 in 2.0 mi NNW 8.1 mph - N/A Snow Light Snow
9:56 PM 27.7 °F 20.4 °F 27.0 °F 97% 30.01 in 4.0 mi North 6.9 mph - N/A Snow Light Snow
10:16 PM 27.5 °F 20.2 °F 26.4 °F 96% 30.01 in 5.0 mi North 6.9 mph - N/A Snow Light Snow
10:36 PM 27.5 °F - 26.6 °F 96% 30.01 in 7.0 mi Calm Calm - N/A Snow Light Snow
10:56 PM 27.1 °F - 26.4 °F 97% 30.00 in 10.0 mi Calm Calm - N/A   Overcast
11:16 PM 27.3 °F - 26.6 °F 97% 30.00 in 10.0 mi Calm Calm - N/A   Overcast
11:36 PM 27.3 °F 23.4 °F 26.6 °F 97% 30.00 in 10.0 mi North 3.5 mph - N/A   Overcast
11:56 PM 27.3 °F - 26.6 °F 97% 29.99 in 10.0 mi Calm Calm - N/A   Overcast